星链-4612 (STARLINK-4612 )

导读 | 豆包AI

STARLINK-4612是美国SpaceX公司星链星座的一员,于2022年9月5日发射,隶属全球低轨卫星互联网项目。星链旨在为偏远及基础设施薄弱区域提供高速低延迟互联网服务,该卫星运行在近地轨道,单星设计寿命超5年,助力扩展全球网络覆盖。星链计划最终将部署数万颗卫星,在推动全球互联的同时,也引发了太空拥堵与天文观测干扰等争议。

Basic Information
目录编号:
53750
目录名称:
STARLINK-4612
国际标识:
2022-107BC
轨道中心:
EARTH
卫星名称:
星链-4612
卫星全名:
星链-4612 (STARLINK-4612 )
卫星状态:
在轨 (已飞行1333 天)
发射日期:
2022-09-05 UTC
国别 :
美国 (US)
星等 :
--
Orbit Information
数据来源 国际轨道数据 AOE轨道数据
星历时间 2026-04-30T12:17:55+0800
14小时前
查看轨道信息
2026-04-28T17:00:00+0800
2天前
查看轨道信息
半长轴 6917.871km 6917.923km
偏心率 0.000174 0.0001837
轨道倾角 53.217° 53.217°
近地点辐角 78.119° 64.028°
升交点赤经 33.181° 41.279°
平近点角 282.000° 211.168°
近地点 538.53km 538.515km
远地点 540.938km 541.057km
周期 95.437分钟 95.438分钟
每日圈数 15.088432 15.088261
Detailed Information
固有亮度:
5
最大亮度:
2.5
卫星平台:
Starlink v1.5
覆盖范围:
全球
运营商:
太空探索技术公司
运营商所在国:
美国
制造商(研发单位):
太空探索技术公司
制造商所在国:
美国
使用方式:
暂无
Satellite Introduction
星链(Starlink)计划是由太空探索技术公司(SpaceX)提出的一个巨型低轨卫星互联网星座项目,计划在2019年至2024年间在太空搭建由约1.2万颗卫星组成的“星链”网络,其中1584颗将部署在地球上空550千米处的近地轨道,并从2020年开始工作。该卫星仍在工作。
2D Orbit Map
3D Orbit Map
Orbit Altitude Analysis Chart
Orbit Inclination Analysis Chart
Orbit Comprehensive Analysis Chart
View Comprehensive Chart